Time,TemperatureF,DewpointF,PressureIn,WindDirection,WindDirectionDegrees,WindSpeedMPH,WindSpeedGustMPH,Humidity,HourlyPrecipIn,Conditions,Clouds,dailyrainin,SoftwareType,DateUTC
2013-03-07 00:02:00,58.0,-99.9,-100.00,WSW,247,4.0,6.0,-999,-99.99,,,-99.99,,2013-03-07 07:02:00,
2013-03-07 00:10:00,57.0,-99.9,-100.00,WSW,248,3.0,4.0,-999,-99.99,,,-99.99,,2013-03-07 07:10:00,
2013-03-07 00:32:00,57.0,-99.9,-100.00,SW,225,2.0,4.0,-999,-99.99,,,-99.99,,2013-03-07 07:32:00,
2013-03-07 00:43:00,57.0,-99.9,-100.00,SW,225,2.0,4.0,-999,-99.99,,,-99.99,,2013-03-07 07:43:00,
2013-03-07 00:53:00,57.0,-99.9,-100.00,WSW,248,3.0,4.0,-999,-99.99,,,-99.99,,2013-03-07 07:53:00,
2013-03-07 01:03:00,57.0,-99.9,-100.00,WSW,248,3.0,4.0,-999,-99.99,,,-99.99,,2013-03-07 08:03:00,
2013-03-07 01:55:00,54.0,-99.9,-100.00,NNW,338,0.0,3.0,-999,-99.99,,,-99.99,,2013-03-07 08:55:00,
2013-03-07 02:04:00,54.0,-99.9,-100.00,NNW,338,0.0,3.0,-999,-99.99,,,-99.99,,2013-03-07 09:04:00,
2013-03-07 02:14:00,54.0,-99.9,-100.00,NNW,338,0.0,3.0,-999,-99.99,,,-99.99,,2013-03-07 09:14:00,
2013-03-07 02:24:00,54.0,-99.9,-100.00,SSW,207,0.0,2.0,-999,-99.99,,,-99.99,,2013-03-07 09:24:00,
2013-03-07 02:30:00,52.0,-99.9,-100.00,North,350,0.0,1.0,-999,-99.99,,,-99.99,,2013-03-07 09:30:00,
2013-03-07 02:33:00,54.0,-99.9,-100.00,WSW,248,0.0,2.0,-999,-99.99,,,-99.99,,2013-03-07 09:33:00,
2013-03-07 02:43:00,54.0,-99.9,-100.00,WSW,248,0.0,2.0,-999,-99.99,,,-99.99,,2013-03-07 09:43:00,
2013-03-07 02:54:00,54.0,-99.9,-100.00,WSW,248,0.0,2.0,-999,-99.99,,,-99.99,,2013-03-07 09:54:00,
2013-03-07 03:24:00,52.0,-99.9,-100.00,North,350,0.0,1.0,-999,-99.99,,,-99.99,,2013-03-07 10:24:00,
2013-03-07 03:40:00,49.0,-99.9,-100.00,NW,304,0.0,2.0,-999,-99.99,,,-99.99,,2013-03-07 10:40:00,
2013-03-07 04:24:00,49.0,-99.9,-100.00,NW,304,0.0,2.0,-999,-99.99,,,-99.99,,2013-03-07 11:24:00,
2013-03-07 04:34:00,49.0,-99.9,-100.00,NW,304,0.0,2.0,-999,-99.99,,,-99.99,,2013-03-07 11:34:00,
2013-03-07 04:40:00,49.0,-99.9,-100.00,ENE,66,0.0,1.0,-999,-99.99,,,-99.99,,2013-03-07 11:40:00,
2013-03-07 05:04:00,51.0,-99.9,-100.00,North,357,0.0,2.0,-999,-99.99,,,-99.99,,2013-03-07 12:04:00,
2013-03-07 05:13:00,51.0,-99.9,-100.00,North,357,0.0,2.0,-999,-99.99,,,-99.99,,2013-03-07 12:13:00,
2013-03-07 05:20:00,50.0,-99.9,-100.00,WNW,293,0.0,1.0,-999,-99.99,,,-99.99,,2013-03-07 12:20:00,
2013-03-07 05:34:00,49.0,-99.9,-100.00,ENE,66,0.0,1.0,-999,-99.99,,,-99.99,,2013-03-07 12:34:00,
2013-03-07 06:03:00,50.0,-99.9,-100.00,WNW,293,0.0,1.0,-999,-99.99,,,-99.99,,2013-03-07 13:03:00,
2013-03-07 06:13:00,50.0,-99.9,-100.00,WNW,293,0.0,1.0,-999,-99.99,,,-99.99,,2013-03-07 13:13:00,
2013-03-07 07:02:00,50.0,-99.9,-100.00,NNW,333,1.0,1.0,-999,-99.99,,,-99.99,,2013-03-07 14:02:00,
2013-03-07 07:13:00,50.0,-99.9,-100.00,NNW,333,1.0,1.0,-999,-99.99,,,-99.99,,2013-03-07 14:13:00,
2013-03-07 07:23:00,49.0,-99.9,-100.00,WSW,252,0.0,1.0,-999,-99.99,,,-99.99,,2013-03-07 14:23:00,
2013-03-07 07:34:00,52.0,-99.9,-100.00,NNE,24,0.0,0.0,-999,-99.99,,,-99.99,,2013-03-07 14:34:00,
2013-03-07 07:43:00,52.0,-99.9,-100.00,NNE,24,0.0,0.0,-999,-99.99,,,-99.99,,2013-03-07 14:43:00,
2013-03-07 07:54:00,55.0,-99.9,-100.00,WSW,255,1.0,1.0,-999,-99.99,,,-99.99,,2013-03-07 14:54:00,
2013-03-07 08:03:00,59.0,-99.9,-100.00,SW,229,1.0,2.0,-999,-99.99,,,-99.99,,2013-03-07 15:03:00,
2013-03-07 08:23:00,59.0,-99.9,-100.00,SW,229,1.0,2.0,-999,-99.99,,,-99.99,,2013-03-07 15:23:00,
2013-03-07 11:04:00,74.0,-99.9,-100.00,WNW,288,1.0,2.0,-999,-99.99,,,-99.99,,2013-03-07 18:04:00,
2013-03-07 11:13:00,74.0,-99.9,-100.00,WNW,288,1.0,2.0,-999,-99.99,,,-99.99,,2013-03-07 18:13:00,
2013-03-07 11:22:00,74.0,-99.9,-100.00,WNW,288,1.0,2.0,-999,-99.99,,,-99.99,,2013-03-07 18:22:00,
2013-03-07 11:35:00,95.0,-99.9,-100.00,NE,44,1.0,3.0,-999,-99.99,,,-99.99,,2013-03-07 18:35:00,
2013-03-07 12:24:00,95.0,-99.9,-100.00,NE,44,1.0,3.0,-999,-99.99,,,-99.99,,2013-03-07 19:24:00,
2013-03-07 15:10:00,80.0,-99.9,-100.00,East,79,1.0,3.0,-999,-99.99,,,-99.99,,2013-03-07 22:10:00,
2013-03-07 15:23:00,79.0,-99.9,-100.00,West,270,1.0,4.0,-999,-99.99,,,-99.99,,2013-03-07 22:23:00,
2013-03-07 15:33:00,79.0,-99.9,-100.00,North,10,3.0,5.0,-999,-99.99,,,-99.99,,2013-03-07 22:33:00,
2013-03-07 15:44:00,79.0,-99.9,-100.00,North,10,3.0,5.0,-999,-99.99,,,-99.99,,2013-03-07 22:44:00,
2013-03-07 15:55:00,80.0,-99.9,-100.00,East,79,1.0,3.0,-999,-99.99,,,-99.99,,2013-03-07 22:55:00,
2013-03-07 16:23:00,75.0,-99.9,-100.00,WNW,302,1.0,3.0,-999,-99.99,,,-99.99,,2013-03-07 23:23:00,
2013-03-07 16:30:00,80.0,-99.9,-100.00,NNE,14,1.0,1.0,-999,-99.99,,,-99.99,,2013-03-07 23:30:00,
2013-03-07 16:35:00,78.0,-99.9,-100.00,WSW,250,0.0,2.0,-999,-99.99,,,-99.99,,2013-03-07 23:35:00,
2013-03-07 16:44:00,78.0,-99.9,-100.00,WSW,250,0.0,2.0,-999,-99.99,,,-99.99,,2013-03-07 23:44:00,
2013-03-07 17:05:00,80.0,-99.9,-100.00,NNE,14,1.0,1.0,-999,-99.99,,,-99.99,,2013-03-08 00:05:00,
2013-03-07 17:13:00,80.0,-99.9,-100.00,NNE,14,1.0,1.0,-999,-99.99,,,-99.99,,2013-03-08 00:13:00,
2013-03-07 17:23:00,80.0,-99.9,-100.00,NNE,14,1.0,1.0,-999,-99.99,,,-99.99,,2013-03-08 00:23:00,
2013-03-07 19:30:00,62.0,-99.9,-100.00,WNW,290,1.0,1.0,-999,-99.99,,,-99.99,,2013-03-08 02:30:00,
2013-03-07 20:02:00,62.0,-99.9,-100.00,WNW,290,1.0,1.0,-999,-99.99,,,-99.99,,2013-03-08 03:02:00,
2013-03-07 20:12:00,62.0,-99.9,-100.00,WNW,290,1.0,1.0,-999,-99.99,,,-99.99,,2013-03-08 03:12:00,
2013-03-07 20:23:00,62.0,-99.9,-100.00,WNW,290,1.0,1.0,-999,-99.99,,,-99.99,,2013-03-08 03:23:00,
2013-03-07 20:50:00,61.0,-99.9,-100.00,West,270,0.0,1.0,-999,-99.99,,,-99.99,,2013-03-08 03:50:00,
2013-03-07 21:32:00,61.0,-99.9,-100.00,West,270,0.0,1.0,-999,-99.99,,,-99.99,,2013-03-08 04:32:00,
2013-03-07 21:43:00,61.0,-99.9,-100.00,West,270,0.0,1.0,-999,-99.99,,,-99.99,,2013-03-08 04:43:00,
2013-03-07 23:02:00,59.0,-99.9,-100.00,ENE,60,0.0,1.0,-999,-99.99,,,-99.99,,2013-03-08 06:02:00,
2013-03-07 23:11:00,59.0,-99.9,-100.00,ENE,60,0.0,1.0,-999,-99.99,,,-99.99,,2013-03-08 06:11:00,
2013-03-07 23:22:00,58.0,-99.9,-100.00,West,264,1.0,1.0,-999,-99.99,,,-99.99,,2013-03-08 06:22:00,
2013-03-07 23:32:00,58.0,-99.9,-100.00,West,264,1.0,1.0,-999,-99.99,,,-99.99,,2013-03-08 06:32:00,